Weather History for Poteau, OK

Change the Weather History Date:

Wednesday, February 13, 2013

  Actual Average (KFSM) Record (KFSM)
Temperature  
Mean Temperature 46 °F 44 °F  
Max Temperature 55 °F 55 °F 85 °F (1962)
Min Temperature 37 °F 33 °F -8 °F (1905)
Degree Days  
Heating Degree Days 19 21  
Month to date heating degree days 297  
Since 1 July heating degree days 2388  
Moisture  
Dew Point 38 °F    
Average Humidity 83    
Maximum Humidity 100    
Minimum Humidity 47    
Precipitation  
Precipitation 0.01 in 0.09 in 3.23 in (1949)
Month to date precipitation 1.24  
Year to date precipitation 4.05  
Sea Level Pressure  
Sea Level Pressure 30.02 in    
Wind  
Wind Speed 5 mph (West)    
Max Wind Speed 10 mph    
Max Gust Speed -    
Visibility 10 miles    
Events Rain    
T = Trace of Precipitation, MM = Missing Value Source: NWS Daily Summary

Daily Weather History Graph

Daily Weather History Graph

Search for Another Location

Airport:

Trip Planner

Search our weather history database for the weather conditions in past years. The results will help you decide how hot, cold, wet, or windy it might be!

Date:

Astronomy

Feb. 13, 2013 Rise Set
Actual Time 7:06 AM CST 5:59 PM CST
Civil Twilight 6:40 AM CST 6:25 PM CST
Nautical Twilight 6:10 AM CST 6:55 PM CST
Astronomical Twilight 5:41 AM CST 7:24 PM CST
Moon 8:46 AM CST (2/13) 9:51 PM CST (2/13)
Length of Visible Light 11h 45m
Length of Day
10h 53m
Waxing Crescent, 14% of the Moon is Illuminated
Feb 13
Waxing Crescent
Feb 17
First Quarter
Feb 25
Full
Mar 4
Last Quarter
Mar 11
New

Hourly Weather History & Observations

Time (CST) Temp. Windchill Dew Point Humidity Pressure Visibility Wind Dir Wind Speed Gust Speed Precip Events Conditions
12:15 AM 37.4 °F 32.8 °F 37.4 °F 100% 29.98 in 5.0 mi North 5.8 mph - 0.01 in Rain Rain
12:35 AM 37.4 °F 31.4 °F 37.4 °F 100% 29.98 in 7.0 mi NNW 8.1 mph - 0.01 in Rain Rain
12:55 AM 37.4 °F 30.8 °F 37.4 °F 100% 29.99 in 7.0 mi NNW 9.2 mph - 0.01 in   Drizzle
1:15 AM 37.4 °F 30.8 °F 37.4 °F 100% 29.99 in 10.0 mi NNW 9.2 mph - N/A   Light Drizzle
1:35 AM 37.4 °F 31.4 °F 35.6 °F 93% 29.99 in 10.0 mi NNW 8.1 mph - N/A   Overcast
1:55 AM 37.4 °F 32.1 °F 37.4 °F 100% 29.98 in 10.0 mi North 6.9 mph - N/A   Overcast
2:15 AM 37.4 °F 30.8 °F 37.4 °F 100% 29.98 in 10.0 mi North 9.2 mph - N/A   Overcast
2:35 AM 37.4 °F 34.9 °F 37.4 °F 100% 29.99 in 10.0 mi NNW 3.5 mph - N/A   Overcast
2:55 AM 39.2 °F - 37.4 °F 93% 29.99 in 10.0 mi Calm Calm - N/A   Overcast
3:15 AM 39.2 °F 37.0 °F 37.4 °F 93% 29.99 in 10.0 mi WNW 3.5 mph - N/A   Overcast
3:35 AM 39.2 °F 34.2 °F 37.4 °F 93% 29.99 in 10.0 mi WNW 6.9 mph - N/A   Overcast
3:55 AM 37.4 °F 32.1 °F 37.4 °F 100% 29.99 in 10.0 mi NW 6.9 mph - N/A   Mostly Cloudy
4:15 AM 37.4 °F 32.1 °F 37.4 °F 100% 30.00 in 10.0 mi NW 6.9 mph - N/A   Overcast
4:35 AM 37.4 °F 34.9 °F 37.4 °F 100% 30.00 in 10.0 mi WNW 3.5 mph - N/A   Overcast
4:55 AM 37.4 °F - 37.4 °F 100% 30.01 in 10.0 mi Calm Calm - N/A   Overcast
5:15 AM 37.4 °F - 37.4 °F 100% 30.02 in 10.0 mi Calm Calm - N/A   Overcast
5:35 AM 37.4 °F 30.3 °F 35.6 °F 93% 30.03 in 10.0 mi WNW 10.4 mph - N/A   Overcast
5:55 AM 37.4 °F 34.9 °F 37.4 °F 100% 30.03 in 10.0 mi NW 3.5 mph - N/A   Overcast
6:15 AM 37.4 °F - 37.4 °F 100% 30.04 in 10.0 mi Calm Calm - N/A   Overcast
6:35 AM 37.4 °F 34.9 °F 37.4 °F 100% 30.04 in 10.0 mi West 3.5 mph - N/A   Overcast
6:55 AM 37.4 °F - 37.4 °F 100% 30.04 in 10.0 mi Calm Calm - N/A   Overcast
7:15 AM 37.4 °F - 37.4 °F 100% 30.05 in 10.0 mi Calm Calm - N/A   Overcast
7:35 AM 37.4 °F 32.1 °F 37.4 °F 100% 30.06 in 10.0 mi WSW 6.9 mph - N/A   Overcast
7:55 AM 37.4 °F 32.1 °F 37.4 °F 100% 30.08 in 10.0 mi WSW 6.9 mph - N/A   Overcast
8:15 AM 37.4 °F - 37.4 °F 100% 30.08 in 10.0 mi Calm Calm - N/A   Overcast
8:35 AM 37.4 °F 34.9 °F 37.4 °F 100% 30.09 in 10.0 mi SSW 3.5 mph - N/A   Overcast
8:55 AM 39.2 °F - 37.4 °F 93% 30.10 in 10.0 mi Calm Calm - N/A   Overcast
9:15 AM 41.0 °F 38.0 °F 39.2 °F 93% 30.11 in 10.0 mi SW 4.6 mph - N/A   Overcast
9:35 AM 41.0 °F 39.0 °F 37.4 °F 87% 30.11 in 10.0 mi South 3.5 mph - N/A   Overcast
9:55 AM 41.0 °F 38.0 °F 39.2 °F 93% 30.10 in 10.0 mi SW 4.6 mph - N/A   Overcast
10:15 AM 42.8 °F 39.3 °F 39.2 °F 87% 30.09 in 10.0 mi West 5.8 mph - N/A   Mostly Cloudy
10:35 AM 44.6 °F 41.4 °F 39.2 °F 81% 30.09 in 10.0 mi WSW 5.8 mph - N/A   Scattered Clouds
10:55 AM 44.6 °F 40.2 °F 39.2 °F 81% 30.09 in 10.0 mi SSW 8.1 mph - N/A   Mostly Cloudy
11:15 AM 44.6 °F 42.2 °F 39.2 °F 81% 30.08 in 10.0 mi SW 4.6 mph - N/A   Mostly Cloudy
11:35 AM 46.4 °F 45.2 °F 41.0 °F 81% 30.08 in 10.0 mi South 3.5 mph - N/A   Mostly Cloudy
11:55 AM 46.4 °F 45.2 °F 39.2 °F 76% 30.08 in 10.0 mi West 3.5 mph - N/A   Scattered Clouds
12:15 PM 50.0 °F - 42.8 °F 76% 30.08 in 10.0 mi SW 8.1 mph - N/A   Mostly Cloudy
12:35 PM 51.8 °F - 42.8 °F 71% 30.06 in 10.0 mi SW 9.2 mph - N/A   Scattered Clouds
12:55 PM 51.8 °F - 41.0 °F 67% 30.05 in 10.0 mi SW 6.9 mph - N/A   Scattered Clouds
1:15 PM 51.8 °F - 41.0 °F 67% 30.03 in 10.0 mi SW 6.9 mph - N/A   Scattered Clouds
1:35 PM 51.8 °F - 39.2 °F 62% 30.02 in 10.0 mi SW 9.2 mph - N/A   Clear
1:55 PM 53.6 °F - 41.0 °F 62% 30.02 in 10.0 mi WSW 5.8 mph - N/A   Scattered Clouds
2:15 PM 53.6 °F - 39.2 °F 58% 30.01 in 10.0 mi WSW 8.1 mph - N/A   Scattered Clouds
2:35 PM 55.4 °F - 41.0 °F 58% 30.00 in 10.0 mi WSW 5.8 mph - N/A   Clear
2:55 PM 55.4 °F - 39.2 °F 54% 29.99 in 10.0 mi WSW 4.6 mph - N/A   Scattered Clouds
3:15 PM 55.4 °F - 39.2 °F 54% 29.99 in 10.0 mi WSW 3.5 mph - N/A   Scattered Clouds
3:35 PM 55.4 °F - 37.4 °F 51% 29.98 in 10.0 mi SW 6.9 mph - N/A   Clear
3:55 PM 55.4 °F - 37.4 °F 51% 29.98 in 10.0 mi SSW 3.5 mph - N/A   Clear
4:15 PM 55.4 °F - 37.4 °F 51% 29.98 in 10.0 mi West 9.2 mph - N/A   Clear
4:35 PM 55.4 °F - 35.6 °F 47% 29.98 in 10.0 mi NW 3.5 mph - N/A   Clear
4:55 PM 55.4 °F - 35.6 °F 47% 29.98 in 10.0 mi WNW 4.6 mph - N/A   Clear
5:15 PM 55.4 °F - 35.6 °F 47% 29.98 in 10.0 mi West 4.6 mph - N/A   Clear
5:35 PM 53.6 °F - 35.6 °F 51% 29.98 in 10.0 mi WSW 4.6 mph - N/A   Clear
5:55 PM 53.6 °F - 37.4 °F 54% 29.98 in 10.0 mi SW 3.5 mph - N/A   Clear
6:15 PM 51.8 °F - 35.6 °F 54% 29.98 in 10.0 mi Calm Calm - N/A   Clear
6:35 PM 48.2 °F - 37.4 °F 66% 29.99 in 10.0 mi Calm Calm - N/A   Clear
6:55 PM 44.6 °F - 39.2 °F 81% 29.99 in 10.0 mi Calm Calm - N/A   Clear
7:15 PM 44.6 °F - 37.4 °F 76% 29.99 in 10.0 mi Calm Calm - N/A   Clear
7:35 PM 42.8 °F - 37.4 °F 81% 30.00 in 10.0 mi Calm Calm - N/A   Clear
7:55 PM 42.8 °F - 37.4 °F 81% 30.00 in 10.0 mi Calm Calm - N/A   Clear
8:15 PM 41.0 °F - 37.4 °F 87% 30.00 in 10.0 mi Calm Calm - N/A   Clear
8:35 PM 41.0 °F - 37.4 °F 87% 30.01 in 10.0 mi Calm Calm - N/A   Clear
8:55 PM 41.0 °F - 37.4 °F 87% 30.01 in 10.0 mi Calm Calm - N/A   Clear
9:15 PM 37.4 °F - 35.6 °F 93% 30.01 in 10.0 mi Calm Calm - N/A   Clear
9:35 PM 37.4 °F - 37.4 °F 100% 30.01 in 10.0 mi Calm Calm - N/A   Clear
9:55 PM 39.2 °F 35.9 °F 35.6 °F 87% 30.01 in 10.0 mi SSW 4.6 mph - N/A   Clear
10:15 PM 37.4 °F - 35.6 °F 93% 30.02 in 10.0 mi Calm Calm - N/A   Clear
10:35 PM 39.2 °F - 35.6 °F 87% 30.02 in 10.0 mi Calm Calm - N/A   Clear
10:55 PM 37.4 °F 34.9 °F 35.6 °F 93% 30.02 in 10.0 mi SSW 3.5 mph - N/A   Clear
11:15 PM 37.4 °F - 35.6 °F 93% 30.03 in 10.0 mi Calm Calm - N/A   Clear
11:35 PM 37.4 °F - 35.6 °F 93% 30.03 in 10.0 mi Calm Calm - N/A   Clear
11:55 PM 37.4 °F - 37.4 °F 100% 30.03 in 10.0 mi Calm Calm - N/A   Clear